Location: Gallinara
(44.0333°N, 8.2333°E)
Time: 01:38:29
(UTC+00:00)

Cosmos 1980 Rocket - Pass Details

Date: 25 September 2020
Orbit: 831 x 848 km, 71.0° (Epoch: 31 October)

Event Time Altitude Azimuth Distance (km) Brightness Sun altitude
Exits shadow 01:05:45 21° 51° (NE) 1,801 4.4 -40.8°
Drops below altitude 10° 01:07:47 10° 39° (NE) 2,467 5.3 -40.6°
Sets 01:10:22 0° 32° (NNE) 3,403 6.2 -40.3°
